{"data":{"norad_id":67211,"epoch":"2026-09-19T09:53:55.381920Z","epoch_age_seconds":169284,"freshness":"FRESH","line1":"1 67211U 25304V   26262.41244655  .00002733  00000+0  23669-3 0  9993","line2":"2 67211  70.0019  45.9673 0002708 270.2506  89.8343 14.98336018 42902","mean_motion":14.98336018,"eccentricity":0.0002708,"inclination_deg":70.0019,"raan_deg":45.9673,"arg_perigee_deg":270.2506,"mean_anomaly_deg":89.8343,"bstar":0.00023669,"rev_number":4290,"period_min":96.106613116204,"perigee_km":570.15517364288,"apogee_km":573.91938803338,"semimajor_km":6950.1742808381,"source":"CELESTRAK","updated_at":"2026-09-20T09:00:43.483315Z"}}